Regional Weather Roundup
Issued by NWS

Home | Current Version | Previous Version | Text Only | Print | Product List | Glossary Off
Versions: 1 2 3 4 5 6 7 8 9 10 11 12 13 14 15 16 17 18 19 20 21 22 23 24 25 26 27 28 29 30 31 32 33 34 35 36 37 38 39 40 41 42 43 44 45 46 47

000
ASUS45 KTFX 282110
RWRMT
MONTANA REGIONAL WEATHER ROUNDUP
NATIONAL WEATHER SERVICE GREAT FALLS MT
300 PM MDT TUE JUL 28 2015

NOTE: "FAIR" INDICATES FEW OR NO CLOUDS BELOW 12000 FEET WITH NO
SIGNIFICANT WEATHER AND/OR OBSTRUCTIONS TO VISIBILITY.

MTZ001>007-043-282200-
WEST OF THE DIVIDE

CITY           SKY/WX    TMP DP  RH WIND       PRES   REMARKS
KALISPELL      CLOUDY    72  42  34 SE3G16    30.16S
MISSOULA       MOSUNNY   70  41  34 VRB6      30.21F
BUTTE          MOSUNNY   62  33  33 NW8G21    30.29F
MULLAN PASS    MOSUNNY   59  34  39 NW9G18    30.33S
DEER LODGE       N/A     64  37  36 CALM      30.28F
EUREKA           N/A     72  39  30 W7        30.16R
HAMILTON         N/A     68  36  30 E6        30.24S
LIBBY            N/A     72  39  30 W6        30.18S
RONAN            N/A     71  39  31 SW8       30.23S
$$

MTZ008-052>055-282200-
SOUTHWEST MONTANA

CITY           SKY/WX    TMP DP  RH WIND       PRES   REMARKS
BOZEMAN        MOSUNNY   67  39  35 SW10      30.25F
DILLON         CLOUDY    62  34  35 CALM      30.29F
W YELLOWSTONE  PTSUNNY   54  36  50 SW9       30.37S
TWIN BRIDGES     N/A     64  36  35 S6        30.25S
$$

MTZ009-010-012-014-046-048-049-054-282200-
EAST SLOPES AND CENTRAL MONTANA

CITY           SKY/WX    TMP DP  RH WIND       PRES   REMARKS
CUT BANK       MOSUNNY   74  36  25 W20G28    30.10S
GREAT FALLS    MOSUNNY   72  35  25 W14G24    30.11S
MALMSTROM AFB  MOSUNNY   71  38  29 W13G25    30.11S
HELENA         MOSUNNY   71  38  29 W18G26    30.18F
$$

MTZ011-013-016-021-045-047-050-051-282200-
NORTH CENTRAL MONTANA

CITY           SKY/WX    TMP DP  RH WIND       PRES   REMARKS
HAVRE          PTSUNNY   74  43  32 NW26G33   30.00R
LEWISTOWN      CLOUDY    69  38  32 W24G35    30.12R
CHINOOK          N/A     73  45  35 W21G30    29.97R
FORT BENTON      N/A     73  37  27 NW15      30.07S
$$

MTZ017>020-022>027-061-062-282200-
NORTHEAST MONTANA

CITY           SKY/WX    TMP DP  RH WIND       PRES   REMARKS
GLASGOW        PTSUNNY   61  53  75 W31G37    29.85R
JORDAN           N/A     68  43  40 NW30G48   29.96R
SIDNEY         CLOUDY    59  52  77 W30G41    29.74R
WOLF POINT     LGT RAIN  62  52  69 W33G48    29.80R
PLENTYWOOD       N/A     55  54  94 W41G61    29.52R
POPLAR           N/A     57  54  88 W31G43    29.76R
$$

MTZ028>42-056>058-282200-
SOUTHCENTRAL AND SOUTHEAST MONTANA

CITY           SKY/WX    TMP DP  RH WIND       PRES   REMARKS
BILLINGS       MOSUNNY   71  35  26 NW24G35   30.14S
LIVINGSTON     MOSUNNY   68  38  33 W25       30.23R
MILES CITY     PTSUNNY   69  44  40 W37G52    30.00R
FORSYTH          N/A     70  41  35 W22G36    30.03R
LAUREL           N/A     70  34  26 W18       30.13S
ROUNDUP          N/A     71  35  26 W23       30.01S
$$

REGIONAL REPORTS...DAKOTAS

CITY           SKY/WX    TMP DP  RH WIND       PRES   REMARKS
WILLISTON      LGT RAIN  60  55  83 W30G49    29.62R
MINOT          CLOUDY    66  50  56 SW28G46   29.52S
DICKINSON      CLOUDY    63  46  54 W37G49    29.80R
BEACH          MOCLDY    63  46  55 W40G60    29.88R
CROSBY         LGT RAIN  57  57 100 W37G54    29.36S
BISMARCK       CLOUDY    72  50  45 W31G46    29.76R
GRAND FORKS    PTSUNNY   77  54  44 SW25G32   29.63R
FARGO          MOSUNNY   80  55  42 SW20G35   29.72R
BUFFALO SD       N/A     69  42  37 W37G46    29.92S
RAPID CITY     MOSUNNY   75  43  31 W15G25    30.04R
$$

REGIONAL REPORTS...WYOMING/IDAHO/WASHINGTON

CITY           SKY/WX    TMP DP  RH WIND       PRES   REMARKS
GILLETTE       SUNNY     71  36  27 NW21G32   30.13R
SHERIDAN       PTSUNNY   73  36  25 NW24G36   30.12S
BUFFALO WY     MOSUNNY   69  36  29 N21G30    30.18R
CODY           SUNNY     66  30  26 W14G26    30.22S
YELLOWSTONE LA   N/A     49  28  44 VRB7G17   30.42R
IDAHO FALLS    MOSUNNY   66  31  27 VRB5      30.32S
BOISE          SUNNY     76  36  23 W9        30.22F
SPOKANE        PTSUNNY   77  36  22 S14       30.21F
$$

REGIONAL REPORTS...ALBERTA

CITY           SKY/WX    TMP DP  RH WIND       PRES   REMARKS
EDMONTON       PTSUNNY   72  45  37 NW13G22   29.92R
CALGARY        PTSUNNY   72  39  30 VRB7      30.02F
LETHBRIDGE     PTSUNNY   73  39  29 W10G21    30.04S
MEDICINE HAT   PTSUNNY   79  36  21 NW25G36   29.95S
CARDSTON         N/A     68  36  30 W10G17      N/A
MILK RIVER       N/A     72  37  28 NW18G25     N/A
ONEFOUR          N/A     70  39  32 NW24G32     N/A
$$

REGIONAL REPORTS...SASKATCHEWAN

CITY           SKY/WX    TMP DP  RH WIND       PRES   REMARKS
SWIFT CURRENT  MOSUNNY   61  54  77 NW21G31   29.81R
REGINA         LGT RAIN  59  57  94 N28G40    29.39R FOG
CYPRESS HILLS    N/A     63  39  42 NW13G25     N/A
VAL MARIE        N/A     63  50  63 NW25G32     N/A
ROCKGLEN         N/A     54  50  87 W37G59      N/A
ASSINIBOIA       N/A     73  48  40 NW17G25     N/A
$$


USA.gov is the U.S. government's official web portal to all federal, state and local government web resources and services.